Temperature
8 10 9 9 9 10 10 10 10 10 9 9 10 10 10 9 8 8 8 8 7 6 6 6 6 6 7 7 7 7 7 7 7 7 7 7 7 7 7 7 7 7 7 7
9 9 8 8 8 8 9 9 9 9 8 9 9 10 10 9 9 8 8 7 7 6 5 5 6 6 6 6 7 7 7 7 7 7 7 7 7 7 7 7 7 7 7 7
9 8 7 8 8 8 8 9 8 8 8 8 8 10 10 9 8 7 7 6 6 6 5 5 5 5 5 6 6 6 6 6 6 6 6 6 6 6 6 6 6 6 6 6
8 7 7 8 8 8 8 7 7 7 8 9 8 10 11 9 9 8 7 6 6 5 5 4 5 5 5 5 6 6 6 6 6 6 6 6 5 5 6 5 5 5 5 5
7 6 7 7 7 7 7 6 6 7 7 7 8 8 11 9 8 8 8 6 5 4 4 4 4 4 5 5 5 5 5 5 5 5 5 5 5 5 5 5 5 5 5 5
6 6 6 6 6 6 6 6 6 6 7 7 8 8 10 9 9 8 7 6 5 4 3 3 4 4 4 4 5 5 5 5 5 5 4 4 4 4 4 4 4 4 4 4
6 6 5 5 6 6 6 7 7 7 7 8 7 7 9 8 7 7 6 5 4 3 3 3 3 3 4 4 4 4 4 4 4 4 4 4 4 4 4 4 4 4 4 4
7 7 5 5 6 6 6 6 7 8 9 9 6 7 9 7 5 5 4 4 3 3 3 3 3 3 3 3 4 4 4 4 4 3 3 3 3 3 3 3 3 3 3 3
7 6 4 4 4 5 6 6 6 6 5 6 8 7 7 6 6 5 4 3 3 3 2 2 2 3 3 3 3 3 3 3 3 3 3 3 2 2 2 2 2 2 2 2
6 5 4 4 4 4 5 5 5 6 6 8 8 8 8 7 6 6 5 4 3 2 2 2 2 2 2 2 2 2 2 2 2 2 2 2 2 2 2 2 2 2 2 2
4 5 4 4 4 4 4 4 4 5 5 7 8 9 7 6 6 5 5 3 3 2 2 2 2 2 2 1 1 1 1 1 1 1 1 1 1 1 1 1 1 1 1 1
3 5 5 4 2 2 4 4 4 5 5 5 6 8 6 5 4 4 3 3 2 2 2 1 1 1 1 1 1 1 1 1 1 1 1 1 1 1 1 1 1 1 1 0
2 3 5 4 3 2 2 2 2 2 4 4 6 7 5 4 4 3 3 2 2 1 1 1 1 1 1 0 0 0 0 0 0 0 0 0 0 0 0 0 0 0 0 -0
3 2 4 6 5 3 2 1 1 2 4 5 5 6 6 5 4 3 2 2 1 1 1 1 1 0 0 0 -0 -0 -0 -0 -0 -0 -0 -0 -0 -0 -0 -0 -0 -0 -0 -1
2 3 2 2 2 2 2 1 1 1 3 4 5 4 5 5 4 3 2 1 1 1 0 0 0 -0 -0 -0 -0 -0 -0 -0 -1 -1 -1 -1 -1 -1 -1 -1 -1 -1 -1 -1
1 2 1 1 1 1 1 1 1 1 2 2 2 3 4 3 2 2 1 1 1 0 0 0 -0 -0 -1 -1 -1 -1 -1 -1 -1 -1 -1 -1 -1 -2 -1 -1 -1 -1 -1 -1
0 0 2 3 1 0 2 2 1 1 1 2 3 4 3 2 2 1 1 0 0 0 0 -0 -0 -1 -1 -1 -1 -1 -1 -1 -1 -2 -2 -2 -2 -2 -2 -2 -2 -2 -2 -2
-1 0 1 2 1 2 4 2 1 1 1 1 1 2 2 2 1 0 0 0 0 0 -0 -0 -1 -1 -1 -1 -1 -1 -1 -2 -2 -2 -2 -2 -2 -2 -2 -2 -2 -2 -2 -2
-1 0 1 1 2 3 3 1 0 0 1 1 1 1 1 -0 -0 1 1 1 0 0 -0 -1 -1 -1 -1 -1 -1 -2 -2 -2 -2 -2 -2 -2 -3 -2 -2 -2 -2 -2 -2 -3
-2 -1 0 0 2 3 4 1 -0 1 2 2 0 0 0 -1 2 3 1 0 0 -0 -1 -1 -1 -1 -1 -2 -2 -2 -2 -2 -2 -3 -3 -3 -3 -3 -3 -3 -3 -3 -3 -3
-2 -1 -0 0 2 3 3 -1 -0 2 4 1 0 -0 -1 -1 1 1 0 -0 -0 -1 -1 -1 -1 -1 -1 -2 -2 -2 -2 -3 -3 -3 -3 -3 -3 -3 -3 -3 -3 -3 -3 -3
-0 -0 -1 -0 1 3 0 -1 1 3 1 0 -0 -0 -1 -1 -0 -1 -1 -1 -1 -1 -1 -1 -1 -2 -2 -2 -2 -2 -3 -3 -3 -3 -3 -3 -3 -3 -3 -3 -3 -3 -4 -4
-1 0 1 0 2 1 -1 -0 0 0 -0 0 -0 -0 -1 -1 -1 -1 -1 -1 -1 -1 -2 -2 -2 -2 -2 -2 -3 -3 -3 -3 -3 -3 -3 -3 -3 -3 -4 -4 -4 -4 -4 -4
-2 -3 -2 -2 -0 -0 -1 -1 -0 -0 -0 -0 -0 -1 -1 -1 -1 -1 -1 -1 -2 -2 -2 -2 -2 -2 -2 -3 -3 -3 -3 -3 -3 -3 -3 -3 -4 -4 -4 -4 -4 -4 -4 -4
-0 -3 -2 -2 -1 -1 -1 -0 0 -0 -0 -0 -0 -1 -1 -1 -1 -1 -1 -2 -2 -2 -2 -3 -3 -3 -3 -3 -3 -3 -3 -3 -3 -3 -4 -4 -4 -4 -4 -4 -5 -5 -5 -5
-2 -2 -1 1 1 -0 1 1 0 -0 -0 -0 -1 -1 -1 -1 -1 -2 -2 -2 -2 -2 -3 -3 -3 -3 -3 -3 -3 -3 -3 -4 -4 -4 -4 -4 -4 -4 -4 -5 -5 -5 -5 -5
Wind_Speed
2 4 5 6 6 4 4 6 7 5 3 5 9 11 9 7 7 7 6 5 5 4 3 3 3 3 3 2 2 2 1 1 1 1 1 1 1 1 1 1 2 2 2 3
4 5 4 3 3 4 5 6 6 4 3 5 8 12 10 8 8 8 7 7 6 4 3 3 3 3 3 3 2 2 2 2 2 1 1 1 1 2 2 2 2 3 3 3
5 1 2 4 4 5 5 6 5 4 4 4 7 9 8 6 6 6 6 6 5 5 4 4 3 3 3 3 3 2 2 2 2 2 1 1 1 1 2 2 2 3 4 4
2 1 3 5 4 5 5 3 4 4 4 3 3 6 6 6 6 5 5 4 4 4 4 4 4 3 3 2 2 2 3 3 3 3 3 3 3 3 3 3 3 4 4 4
3 2 3 4 4 4 1 0 2 3 4 5 5 6 5 4 6 5 4 3 3 3 3 3 3 3 3 2 2 2 3 3 3 4 4 4 4 4 3 3 4 4 4 4
1 0 1 1 0 2 2 2 1 2 3 5 5 7 6 4 5 4 2 2 2 2 2 2 2 2 1 1 1 2 2 3 3 4 4 5 5 5 4 4 4 4 4 4
2 1 0 1 2 2 3 3 2 3 4 5 2 6 6 2 3 3 3 2 2 1 2 2 1 2 2 2 2 2 2 3 3 4 5 5 5 6 6 5 5 5 5 4
4 3 3 1 2 3 5 4 3 4 4 3 3 6 3 1 1 2 2 2 1 1 1 1 1 2 2 2 2 2 3 3 3 4 4 5 5 5 5 6 5 6 5 5
4 3 1 0 1 2 4 4 1 1 2 4 5 4 4 3 2 2 2 1 1 1 1 2 2 2 2 2 3 3 3 3 4 4 4 5 5 5 5 6 6 5 5 5
2 3 1 1 2 1 1 3 3 3 3 5 5 5 3 3 3 2 1 1 2 2 2 3 2 2 2 2 3 3 3 4 4 4 4 4 5 5 5 5 6 6 6 6
2 3 2 3 4 4 4 4 3 3 3 4 4 3 0 3 3 2 2 3 3 3 4 3 3 2 2 3 3 3 3 4 4 4 4 5 4 4 5 5 6 6 6 6
3 2 3 3 1 2 4 5 6 4 4 4 4 4 1 2 1 3 4 4 4 4 4 3 3 2 2 3 3 3 4 4 4 4 5 5 5 4 5 5 6 6 6 6
5 4 3 3 3 3 3 4 4 2 2 5 6 5 2 0 2 3 4 5 4 4 4 3 3 3 3 3 4 4 4 4 4 4 5 5 5 5 5 5 5 6 6 6
3 4 6 6 2 4 5 6 7 6 6 7 10 10 6 6 6 6 6 6 5 4 4 4 3 3 3 4 4 4 4 4 4 5 5 5 6 6 6 6 6 6 6 6
3 4 4 4 3 3 6 8 10 11 11 10 10 11 13 10 9 9 8 7 6 5 5 4 5 4 4 4 4 4 4 4 5 5 5 6 6 6 6 6 6 6 6 6
2 3 3 4 4 4 7 10 12 12 11 13 13 14 12 8 7 8 8 7 7 7 6 6 5 5 5 5 4 4 4 4 5 5 5 6 6 6 6 6 6 6 6 6
4 4 4 4 2 4 9 10 12 9 9 10 13 11 7 8 8 8 9 8 8 7 7 6 6 6 5 5 5 5 5 4 5 5 6 6 6 6 6 6 6 6 6 6
5 5 3 2 2 8 3 2 8 10 11 12 11 10 9 9 10 9 9 8 8 7 7 7 6 6 5 5 4 4 4 4 5 5 6 6 6 6 7 7 6 6 6 6
4 5 4 3 5 8 5 4 5 7 7 9 12 12 10 7 8 7 5 6 7 7 7 6 5 5 4 4 4 4 4 4 5 5 5 6 6 6 7 7 7 6 6 6
2 3 4 4 5 7 2 3 4 4 5 5 8 9 7 3 5 4 2 5 6 6 5 4 4 4 4 4 3 3 4 5 5 5 6 6 6 6 6 6 6 6 5 5
4 4 7 7 7 7 1 4 6 5 3 1 4 6 5 6 6 5 5 6 5 5 4 3 3 3 4 3 3 4 4 5 5 5 5 6 5 5 6 6 5 5 5 5
8 7 7 7 8 7 5 7 7 3 2 2 3 5 6 7 8 7 7 6 5 4 4 3 3 4 3 3 3 4 5 5 4 5 5 5 5 4 4 5 5 4 4 4
8 7 5 8 7 1 6 6 5 2 4 4 4 5 6 7 8 7 7 6 5 5 4 3 3 4 4 4 4 5 5 4 4 4 4 4 4 4 4 4 4 4 3 3
5 3 4 6 9 7 7 8 7 7 7 7 6 6 6 7 8 7 6 6 5 4 4 3 3 4 4 4 4 4 4 4 4 4 4 3 3 3 3 3 3 3 3 3
5 7 6 8 8 7 7 9 9 8 8 7 7 6 7 8 8 7 6 6 5 4 4 4 4 4 4 4 4 4 4 3 3 4 3 3 3 3 3 3 3 3 3 3
7 8 8 8 7 6 7 6 6 7 8 8 8 8 7 7 8 7 6 5 5 4 4 4 4 4 4 4 4 4 3 3 3 3 3 2 2 2 2 2 3 3 3 5
Wind_Direction
148 183 197 203 216 243 221 233 246 259 294 271 259 265 261 250 238 239 238 233 230 232 226 201 192 185 181 174 170 168 167 163 164 183 213 222 246 268 299 317 313 314 316 316
163 206 218 206 197 201 217 237 254 270 296 279 274 272 265 247 242 241 241 239 237 234 217 196 191 192 193 189 189 196 198 203 203 218 234 248 273 267 281 293 295 300 302 301
187 154 174 177 182 206 227 238 251 267 296 264 283 266 239 233 236 238 239 240 239 235 227 206 198 199 202 208 217 224 224 224 226 227 223 225 245 259 267 280 283 297 297 291
178 190 182 185 207 229 236 244 244 255 261 262 267 271 239 226 232 230 230 233 239 234 225 210 206 207 214 225 238 242 240 235 229 221 222 227 242 258 273 280 283 289 286 283
170 167 185 204 223 225 213 154 238 252 254 265 237 251 254 218 232 234 231 235 234 231 222 212 213 218 223 232 245 250 250 248 237 228 229 236 248 260 272 276 279 287 286 282
147 177 255 216 167 181 156 165 206 227 237 248 233 234 258 223 227 228 234 246 239 230 219 214 207 215 228 243 252 254 249 258 250 238 236 240 251 258 265 272 278 282 280 277
174 176 157 192 160 153 189 206 230 224 227 241 190 236 255 256 240 245 257 272 266 230 210 207 211 233 256 266 272 268 258 261 262 252 248 248 251 254 258 267 270 275 275 277
196 206 187 197 218 197 197 213 229 250 255 268 218 239 256 272 261 267 269 270 256 218 220 234 254 263 268 275 277 277 271 264 265 263 260 256 255 257 261 263 267 267 270 273
203 204 115 218 292 208 182 201 250 235 282 266 247 258 269 218 247 263 259 252 243 268 275 272 278 284 283 280 281 281 280 276 272 271 272 265 261 260 262 265 266 268 270 273
200 206 196 165 175 92 263 164 176 205 239 258 261 258 263 224 228 239 252 261 276 288 291 291 289 296 298 294 294 293 290 289 295 289 279 273 271 269 267 266 267 269 272 273
203 191 172 184 205 198 170 178 201 206 247 256 266 258 290 235 224 246 284 290 284 286 288 289 294 301 302 297 295 300 301 301 302 302 300 289 281 278 273 269 269 271 272 270
185 199 212 215 136 301 235 214 198 218 224 234 262 270 75 240 252 282 298 298 291 287 289 286 284 290 298 301 300 301 302 304 308 307 303 302 291 286 280 277 275 274 272 271
169 182 194 195 196 197 219 218 212 209 205 221 237 251 111 11 290 292 294 294 291 286 287 286 279 280 287 294 297 299 301 307 309 307 305 306 298 290 286 285 283 280 275 271
173 201 227 239 240 179 207 211 203 202 222 234 238 256 271 290 297 299 296 293 285 275 275 276 276 276 282 289 293 297 302 304 306 304 303 302 303 299 292 288 287 282 277 273
197 223 232 259 265 220 230 225 212 218 229 240 252 256 272 286 288 291 293 289 281 276 275 270 269 274 281 286 290 294 296 300 303 300 300 303 304 303 299 293 290 286 281 275
195 212 217 246 239 242 256 244 226 229 236 244 260 268 275 286 286 285 286 280 271 269 272 269 267 269 273 278 283 288 290 294 298 296 298 302 304 302 301 299 295 289 284 278
181 178 206 240 245 269 258 235 215 218 222 224 240 254 279 288 287 284 282 272 264 267 273 270 266 264 268 271 273 276 282 288 291 290 292 296 299 300 300 300 296 292 287 280
175 179 200 238 220 240 251 160 202 221 237 228 243 260 270 280 293 285 271 259 265 269 270 270 268 267 267 269 270 274 279 280 284 286 290 295 295 295 298 297 293 291 287 280
200 182 188 208 240 265 262 196 186 209 250 227 235 254 271 296 298 276 244 251 268 273 273 271 266 262 262 263 268 274 279 281 280 282 290 294 295 294 294 294 295 295 289 279
152 181 193 202 231 245 231 149 163 178 253 208 224 248 265 273 276 291 303 283 282 282 279 276 269 262 258 263 265 269 277 279 280 286 291 293 293 290 290 292 294 292 285 280
171 186 207 216 235 259 228 145 159 207 263 225 235 245 239 232 255 295 298 290 285 285 281 271 258 256 258 258 255 263 272 276 284 289 290 291 291 290 292 294 294 292 287 285
186 187 199 202 222 243 156 159 200 244 335 266 258 248 243 256 275 281 281 283 282 278 272 260 257 264 266 255 250 262 272 281 287 287 288 292 294 296 295 297 297 295 291 286
208 205 200 207 225 282 177 209 237 259 256 264 263 264 259 267 274 276 277 275 273 267 264 260 255 265 269 261 255 262 277 284 289 287 289 293 300 300 301 301 302 304 304 293
216 205 218 243 254 254 243 248 252 247 256 270 268 264 260 260 267 270 270 270 268 268 263 257 252 258 271 278 276 270 278 282 284 286 292 296 299 305 311 308 303 303 306 306
209 182 212 245 264 282 257 238 245 254 259 261 262 258 253 254 261 262 264 263 262 265 262 253 247 256 268 280 282 281 279 274 279 284 291 297 298 303 312 316 316 307 305 304
205 199 208 239 232 233 257 247 244 251 256 258 262 264 258 248 253 259 259 256 254 251 251 252 254 258 268 277 282 285 278 268 271 281 289 293 298 303 308 313 324 331 320 335
Height
1500 1499 1498 1499 1500 1500 1499 1499 1499 1500 1503 1503 1498 1496 1496 1498 1500 1500 1500 1500 1500 1500 1501 1501 1501 1502 1503 1504 1505 1506 1506 1507 1507 1507 1508 1508 1508 1508 1508 1507 1507 1506 1506 1505
1499 1499 1501 1502 1503 1503 1502 1501 1500 1502 1504 1502 1498 1494 1493 1495 1496 1496 1497 1497 1497 1498 1498 1498 1499 1500 1500 1501 1502 1503 1504 1504 1504 1505 1505 1505 1505 1505 1505 1504 1504 1503 1503 1502
1495 1501 1503 1503 1502 1502 1502 1501 1501 1502 1503 1502 1500 1489 1488 1491 1493 1494 1494 1494 1495 1495 1495 1496 1496 1497 1498 1499 1499 1500 1501 1501 1502 1502 1502 1502 1502 1501 1501 1501 1500 1500 1499 1499
1500 1503 1503 1502 1502 1501 1501 1504 1504 1504 1501 1496 1499 1488 1481 1486 1488 1490 1491 1492 1492 1492 1493 1493 1494 1494 1495 1496 1497 1497 1498 1498 1499 1499 1498 1498 1498 1498 1497 1497 1496 1496 1495 1495
1500 1503 1502 1501 1503 1503 1503 1506 1505 1504 1503 1501 1497 1496 1479 1484 1484 1485 1488 1489 1489 1490 1490 1491 1491 1492 1493 1493 1493 1494 1494 1495 1495 1495 1495 1495 1494 1494 1494 1493 1493 1492 1491 1491
1502 1505 1504 1503 1505 1505 1506 1507 1506 1504 1501 1499 1492 1491 1476 1478 1480 1483 1486 1487 1487 1488 1488 1489 1489 1490 1490 1490 1491 1491 1491 1491 1491 1491 1491 1491 1491 1490 1490 1489 1488 1488 1487 1486
1501 1503 1505 1505 1504 1505 1505 1502 1498 1496 1494 1486 1494 1491 1479 1480 1483 1484 1485 1485 1486 1486 1486 1487 1487 1487 1487 1488 1488 1487 1487 1487 1488 1488 1487 1487 1487 1486 1485 1485 1484 1483 1482 1481
1495 1496 1503 1504 1502 1501 1503 1500 1496 1491 1484 1480 1494 1486 1478 1483 1484 1484 1485 1485 1485 1485 1485 1485 1485 1485 1485 1485 1485 1484 1484 1484 1484 1484 1483 1483 1483 1482 1481 1480 1479 1478 1478 1477
1492 1495 1504 1505 1505 1503 1501 1500 1502 1501 1504 1494 1480 1481 1480 1482 1482 1483 1484 1484 1484 1484 1484 1484 1484 1483 1483 1482 1482 1481 1481 1480 1480 1480 1479 1479 1478 1478 1477 1476 1475 1474 1473 1472
1496 1498 1502 1505 1505 1505 1503 1502 1503 1499 1493 1481 1476 1477 1473 1477 1478 1481 1482 1482 1482 1483 1483 1482 1481 1481 1480 1480 1479 1479 1478 1477 1476 1476 1475 1475 1474 1474 1473 1472 1470 1469 1468 1467
1499 1499 1502 1504 1503 1500 1504 1505 1501 1497 1495 1485 1476 1472 1475 1476 1478 1480 1481 1481 1481 1481 1481 1480 1479 1479 1478 1477 1477 1476 1475 1474 1473 1472 1471 1471 1470 1469 1468 1467 1466 1465 1463 1462
1499 1497 1496 1500 1506 1506 1502 1499 1499 1494 1495 1494 1484 1477 1477 1479 1480 1481 1480 1480 1480 1479 1479 1478 1477 1476 1476 1475 1474 1473 1472 1471 1470 1469 1468 1467 1466 1465 1464 1463 1461 1460 1459 1457
1499 1498 1493 1494 1503 1507 1504 1502 1503 1502 1497 1492 1484 1476 1478 1479 1479 1480 1479 1479 1478 1477 1477 1476 1475 1474 1474 1473 1472 1471 1469 1468 1467 1466 1465 1463 1462 1460 1459 1458 1457 1455 1454 1452
1496 1496 1491 1483 1482 1491 1498 1501 1502 1499 1491 1486 1482 1474 1474 1476 1477 1478 1477 1477 1476 1475 1474 1474 1473 1472 1471 1470 1469 1468 1466 1465 1464 1463 1461 1460 1458 1456 1455 1453 1452 1450 1449 1448
1495 1492 1494 1492 1493 1494 1493 1495 1498 1497 1487 1484 1476 1478 1473 1475 1476 1476 1475 1474 1473 1472 1472 1471 1470 1469 1468 1467 1466 1465 1464 1462 1461 1460 1458 1457 1455 1453 1451 1449 1447 1446 1444 1443
1494 1493 1495 1493 1494 1495 1494 1490 1491 1492 1489 1485 1483 1478 1472 1474 1474 1474 1472 1471 1470 1469 1468 1468 1467 1466 1465 1464 1463 1462 1461 1459 1458 1457 1455 1453 1451 1449 1447 1445 1443 1441 1440 1438
1493 1494 1491 1484 1493 1493 1482 1479 1483 1483 1482 1481 1476 1471 1471 1471 1471 1470 1469 1468 1466 1466 1465 1464 1463 1462 1462 1461 1460 1458 1457 1456 1455 1454 1452 1450 1448 1445 1443 1441 1439 1437 1435 1434
1492 1492 1490 1487 1491 1482 1469 1474 1475 1477 1475 1475 1473 1470 1469 1469 1468 1466 1465 1464 1463 1462 1461 1460 1459 1458 1458 1457 1456 1455 1454 1453 1451 1450 1448 1446 1444 1442 1440 1438 1436 1434 1432 1430
1489 1489 1488 1487 1479 1469 1469 1472 1474 1474 1470 1468 1469 1468 1467 1467 1465 1461 1461 1460 1459 1458 1457 1457 1456 1455 1454 1453 1453 1452 1451 1449 1448 1446 1444 1442 1440 1438 1436 1434 1432 1430 1428 1427
1490 1490 1488 1486 1477 1466 1461 1469 1470 1473 1466 1463 1464 1464 1464 1466 1462 1458 1458 1456 1455 1455 1454 1453 1452 1451 1450 1450 1449 1448 1447 1446 1444 1443 1441 1439 1437 1435 1433 1431 1429 1427 1425 1423
1487 1487 1485 1481 1475 1462 1464 1468 1470 1467 1459 1460 1460 1460 1461 1461 1459 1457 1455 1453 1452 1451 1451 1449 1449 1448 1447 1447 1446 1445 1444 1443 1441 1439 1437 1435 1433 1431 1429 1427 1426 1424 1422 1420
1475 1476 1480 1478 1473 1463 1464 1466 1464 1458 1458 1458 1457 1457 1457 1456 1455 1453 1452 1450 1449 1448 1447 1446 1445 1445 1444 1444 1443 1442 1441 1440 1438 1436 1434 1432 1431 1429 1427 1424 1423 1421 1419 1418
1471 1468 1466 1467 1461 1458 1459 1458 1457 1457 1456 1455 1455 1454 1454 1453 1451 1450 1448 1447 1446 1445 1444 1443 1443 1442 1442 1441 1440 1439 1438 1437 1435 1433 1431 1430 1428 1426 1424 1422 1420 1419 1417 1416
1467 1469 1468 1465 1456 1456 1455 1454 1454 1454 1453 1452 1452 1451 1450 1449 1447 1446 1444 1443 1442 1442 1441 1440 1440 1439 1438 1438 1437 1436 1435 1434 1432 1430 1429 1427 1426 1424 1422 1420 1419 1417 1415 1414
1458 1464 1463 1459 1454 1453 1450 1450 1450 1450 1449 1448 1448 1447 1446 1445 1443 1442 1441 1440 1439 1438 1438 1437 1436 1436 1435 1435 1434 1433 1432 1431 1429 1428 1426 1425 1423 1422 1420 1419 1417 1416 1414 1413
1453 1454 1453 1447 1446 1448 1445 1445 1446 1445 1445 1444 1443 1442 1441 1441 1439 1438 1437 1436 1435 1435 1434 1434 1433 1433 1432 1432 1431 1430 1429 1428 1427 1425 1424 1423 1421 1420 1419 1417 1416 1414 1413 1411